Theta_e
301 300 300 300 300 300 300 299 300 300 300 301 303 304 305 305 306 306 301 303 297 290 291 294 294 289 289 288 283 288 286 291 289 286 286 287 286 291 288 289 287 288 289 288 292 290 286 297 302 297 302 305 306 307
300 300 300 300 300 300 300 299 299 300 300 301 302 304 305 305 306 306 298 303 303 293 292 298 298 299 296 295 289 289 288 287 289 287 289 287 287 288 287 286 297 288 293 289 289 288 296 299 299 305 305 304 303 301
300 300 300 300 299 299 299 299 299 300 300 300 302 303 305 305 306 305 301 300 298 292 294 295 295 300 301 299 299 288 292 297 295 295 293 289 286 292 287 290 294 295 298 292 291 293 295 298 301 303 304 304 303 301
299 299 299 299 299 299 299 299 299 301 300 300 301 303 304 305 306 306 301 301 298 294 288 292 301 298 303 301 301 299 297 298 299 297 293 289 287 295 293 294 293 296 296 291 291 294 295 295 298 300 301 301 299 299
298 299 299 299 299 299 299 299 300 300 299 300 302 303 303 304 305 305 303 302 303 295 288 290 298 300 300 301 299 300 299 297 297 295 293 290 294 294 298 294 288 294 294 293 288 293 292 292 295 298 297 296 297 297
299 299 299 299 298 299 299 300 301 299 300 301 302 303 303 304 305 301 295 301 303 302 292 287 298 297 300 301 299 299 300 299 296 294 293 295 297 296 292 286 289 292 294 296 289 294 292 292 293 295 295 295 295 295
298 298 298 299 299 298 299 300 300 299 300 302 303 303 304 305 302 296 294 300 303 301 292 288 290 298 298 298 298 298 299 297 296 297 295 295 298 299 292 286 291 294 295 295 296 296 291 291 288 292 293 293 294 294
298 298 298 298 298 299 299 300 300 300 301 303 304 303 305 306 303 299 303 304 305 299 296 289 290 294 298 296 294 298 296 297 297 296 298 293 298 295 287 292 294 294 293 293 293 293 292 293 294 293 294 293 291 290
297 298 298 298 298 299 300 300 300 300 303 303 303 303 302 300 297 299 304 306 306 299 290 290 288 288 299 296 295 297 295 293 296 294 294 296 292 286 292 295 296 296 294 292 293 293 293 292 292 292 292 292 290 289
297 298 299 298 298 299 300 300 300 302 303 301 299 296 293 298 302 303 300 296 296 297 295 290 295 291 295 295 294 294 295 289 291 293 295 293 291 296 296 296 296 295 295 296 292 291 291 291 291 291 291 291 291 290
298 298 299 299 298 299 300 300 301 302 299 296 294 291 298 302 299 295 291 290 292 290 294 294 295 292 298 292 292 294 292 292 288 291 292 292 291 294 297 295 297 297 298 298 298 297 296 294 292 291 291 291 291 290
298 298 299 298 298 299 299 300 301 299 296 295 295 297 297 295 293 288 289 291 290 289 295 294 294 295 297 298 294 294 290 292 287 293 292 289 292 298 298 297 297 297 297 297 297 295 295 294 294 292 291 291 291 291
297 298 298 298 298 299 299 300 301 301 301 300 295 293 291 291 284 284 282 286 289 294 296 296 294 295 297 296 293 291 288 288 293 290 288 291 296 298 300 299 299 297 297 297 296 296 295 294 294 293 291 292 292 291
298 298 298 298 298 299 299 299 300 300 295 293 289 285 287 287 287 288 288 290 294 296 296 297 296 293 293 292 291 287 290 292 287 284 285 292 296 298 302 301 298 295 297 297 296 296 295 295 293 293 293 293 292 291
298 298 298 298 299 298 299 300 300 298 294 291 290 283 287 291 292 293 295 295 297 299 297 296 295 294 292 290 290 289 288 284 285 285 289 296 298 299 301 300 298 297 297 296 297 296 296 295 294 293 294 294 293 292
298 297 296 299 298 298 299 299 298 299 296 293 291 288 291 290 291 293 294 295 299 299 298 297 292 290 290 290 288 285 285 282 288 290 294 296 299 300 301 300 299 298 297 298 298 297 297 296 295 294 295 294 293 292
297 293 296 297 297 298 299 297 298 296 293 291 290 293 292 291 291 292 295 294 299 298 293 294 289 288 292 289 286 291 288 292 295 296 295 297 300 300 302 297 296 296 297 298 298 298 297 297 296 295 293 293 293 293
294 295 295 297 298 298 297 298 296 294 288 291 288 291 293 294 293 295 297 298 298 298 297 293 296 289 287 285 287 291 294 298 298 299 295 297 298 297 298 296 296 296 297 296 297 297 295 295 294 294 293 293 293 293
295 296 297 298 298 295 291 295 298 291 292 295 295 296 296 296 299 299 299 298 298 300 298 296 291 290 291 293 292 294 297 297 298 298 298 300 298 296 296 296 295 295 295 295 296 295 296 296 295 294 293 293 292 293
298 298 298 299 299 293 291 294 299 293 290 294 295 294 296 296 299 299 299 299 299 298 295 294 294 297 297 299 300 300 300 300 299 297 299 299 297 298 297 297 296 294 294 293 294 292 294 293 294 295 295 294 293 292
294 296 297 299 297 295 292 292 293 293 293 292 295 294 293 295 295 297 297 299 297 296 295 297 299 300 300 301 299 299 298 298 299 299 299 296 296 298 298 299 300 298 295 293 293 292 293 295 294 295 294 294 295 295
293 295 295 296 294 295 293 296 293 294 292 293 293 294 292 293 295 296 298 297 295 298 299 300 301 301 301 298 298 300 301 299 300 297 295 294 294 296 296 298 298 296 295 295 295 295 295 295 295 295 295 294 293 294
296 297 295 294 291 288 289 296 291 293 290 292 293 291 292 293 296 299 294 296 298 302 303 301 299 299 299 300 301 300 299 299 297 296 297 295 295 295 296 297 298 296 295 295 297 296 295 291 292 295 294 293 293 292
298 293 290 289 290 286 292 290 292 292 293 291 290 289 292 294 296 295 293 297 300 301 301 299 299 298 299 299 299 298 297 298 297 298 299 297 295 297 297 296 297 297 298 297 297 296 296 295 292 293 293 292 292 292
284 286 288 284 288 287 288 289 289 289 288 290 289 290 292 295 291 291 291 296 299 300 300 300 298 298 297 298 299 300 300 300 299 297 297 298 297 297 298 297 297 298 298 297 296 296 295 294 294 293 292 292 292 291
283 287 287 288 290 287 288 286 287 289 290 288 290 293 295 292 288 286 292 297 299 301 301 302 298 298 297 299 298 299 300 301 299 298 298 300 298 297 297 297 296 297 299 299 298 296 294 293 292 292 292 290 287 291
283 285 290 293 292 292 290 292 292 291 288 289 291 291 290 286 287 292 299 301 301 302 303 303 304 302 301 300 301 304 305 303 302 302 302 301 301 301 300 299 298 301 301 300 298 297 295 293 292 292 292 291 291 291
289 289 285 288 289 291 288 289 289 288 290 294 293 287 287 288 290 296 299 301 303 302 301 302 304 304 304 302 303 304 304 304 302 299 299 300 301 301 301 301 301 290 298 298 297 296 295 294 293 292 292 291 291 292
288 290 290 287 288 289 289 289 291 294 297 295 292 290 290 297 298 298 300 302 305 303 302 302 302 305 304 303 303 304 301 299 299 297 296 297 298 297 298 299 297 296 296 295 286 291 295 294 294 293 293 293 293 292
288 292 290 289 288 288 292 295 294 297 299 298 298 297 298 298 300 302 302 302 302 301 301 302 302 302 301 300 300 299 300 300 300 300 296 296 298 300 297 297 297 297 296 295 294 291 285 291 289 293 292 292 292 291
292 291 289 289 288 292 295 297 297 298 297 297 298 296 295 297 300 302 301 302 302 302 302 301 301 302 300 301 300 298 300 302 300 299 301 303 302 301 299 299 298 297 296 295 294 294 293 293 293 292 292 291 291 290
291 289 288 286 289 293 294 294 295 294 295 295 295 296 296 296 293 297 300 301 300 299 293 297 299 298 299 303 302 302 292 303 300 298 299 300 301 301 300 298 297 297 296 295 294 294 294 293 292 291 291 291 291 290
292 293 292 291 291 291 294 294 291 291 292 292 293 294 295 294 291 295 300 300 299 298 297 300 300 300 300 298 300 299 294 299 295 286 287 286 287 293 298 298 297 297 296 295 294 294 293 292 292 291 291 291 290 290
Wind_Speed
11 11 12 14 15 16 17 18 19 19 20 21 21 24 23 22 21 9 5 6 3 5 18 12 11 14 14 9 6 13 8 1 4 6 3 4 3 3 2 2 3 2 2 2 1 5 5 15 4 6 7 14 20 19
10 10 12 13 15 16 16 18 18 19 20 20 21 22 22 22 21 15 3 2 4 5 15 20 23 24 21 22 9 3 5 7 4 3 3 4 3 4 3 2 6 6 6 4 6 4 5 6 7 11 13 21 20 21
9 10 12 14 16 17 16 19 19 20 20 20 21 23 22 22 21 15 3 2 2 4 10 5 7 8 9 12 12 4 4 5 3 5 4 3 4 4 5 6 3 6 10 5 3 10 14 14 14 14 13 22 22 20
8 9 11 14 15 17 18 19 20 20 21 20 21 22 22 22 20 16 3 1 1 4 5 8 7 16 12 9 11 14 14 12 8 6 2 2 3 4 5 6 6 7 5 4 7 11 17 20 17 18 24 25 25 20
8 10 12 13 15 16 17 18 20 20 21 22 22 22 22 21 18 8 4 4 4 3 4 10 21 7 9 9 13 8 12 10 5 2 2 3 3 3 2 5 8 11 4 2 5 15 17 15 14 19 25 25 23 26
11 11 12 15 16 16 18 19 19 21 21 23 23 24 23 20 11 2 1 2 5 1 4 5 5 10 16 14 11 6 4 3 2 3 2 2 2 3 5 5 10 13 15 7 8 17 22 19 17 16 25 24 23 25
11 12 13 15 16 16 19 20 19 20 22 23 24 24 23 17 3 3 1 2 4 2 3 5 7 5 7 7 5 4 4 3 3 4 7 5 8 7 5 5 9 13 15 15 16 15 19 13 13 16 23 24 25 23
11 12 13 15 16 17 19 19 20 21 23 23 23 22 14 3 2 3 1 4 3 2 2 4 6 7 6 5 5 4 5 4 5 4 3 6 5 5 6 6 9 14 20 19 21 19 20 19 20 20 19 20 22 19
11 12 12 13 15 17 18 18 20 21 22 23 20 9 1 0 1 1 6 11 1 2 2 2 5 6 7 3 3 4 3 3 3 7 5 3 5 7 4 5 11 10 13 18 18 19 19 20 19 17 18 18 20 17
12 12 14 14 15 17 17 17 19 21 23 17 3 1 1 0 9 8 2 2 2 2 2 3 2 5 4 3 3 6 2 3 4 4 4 5 4 8 9 8 9 11 16 15 21 17 18 17 16 15 16 14 15 16
12 13 15 14 15 16 17 17 17 19 8 4 4 2 4 9 1 1 2 2 1 2 3 3 3 5 1 4 4 3 3 3 3 5 3 4 5 6 6 7 8 7 6 11 14 14 14 16 15 16 15 16 15 15
11 13 14 14 15 16 16 17 16 4 3 5 6 5 3 2 1 2 1 0 2 2 2 3 4 2 3 2 3 3 3 2 4 5 3 3 4 9 8 10 3 6 10 13 14 15 14 14 14 15 14 14 14 15
11 13 13 14 15 17 18 15 11 13 11 3 3 3 1 1 2 3 3 2 2 2 1 4 5 2 1 1 2 3 4 3 3 3 3 3 5 7 4 7 5 9 12 15 15 14 15 15 14 14 15 14 14 14
13 13 14 15 16 15 11 12 13 9 3 2 2 3 1 1 1 1 2 2 3 4 6 5 3 1 2 3 2 3 4 2 3 3 3 2 7 6 2 4 9 8 12 14 15 15 15 14 14 13 13 12 12 12
14 14 14 17 6 10 13 14 13 3 2 2 1 2 2 2 3 3 3 4 3 5 4 4 2 2 1 1 3 3 2 4 2 2 2 4 8 4 1 6 9 10 10 11 12 12 13 13 12 13 12 11 11 12
11 12 3 6 11 16 17 11 2 3 2 2 2 2 2 2 2 2 2 4 3 5 3 1 2 2 4 3 2 4 1 2 1 2 3 6 5 1 5 7 8 7 9 12 11 12 13 13 12 12 12 11 11 11
8 4 3 9 15 18 12 2 2 4 3 3 2 2 3 4 5 3 2 2 3 4 3 2 3 4 2 1 2 1 1 1 2 2 2 4 4 2 7 8 8 8 9 11 12 11 12 12 12 12 11 9 10 10
4 4 8 14 13 8 2 2 2 2 3 2 2 3 2 3 3 3 3 2 2 3 1 3 1 1 2 2 1 2 3 2 2 2 1 3 1 5 7 9 9 7 10 11 11 12 13 13 12 9 11 10 9 9
7 8 13 15 8 4 3 2 3 2 2 2 3 2 2 3 5 5 4 4 3 2 3 1 1 1 1 2 2 2 3 2 1 1 1 2 5 7 9 9 9 8 9 9 11 9 9 11 9 9 8 8 8 7
13 15 15 12 6 2 3 3 2 2 2 0 0 3 2 4 3 2 3 1 1 1 2 2 1 1 2 1 1 3 2 1 2 1 2 3 4 8 9 9 9 9 7 7 7 7 8 7 7 8 7 7 7 8
4 2 5 1 2 3 3 3 3 2 2 2 1 2 2 2 2 1 0 1 1 1 1 0 2 3 2 2 2 2 2 2 2 2 3 5 5 7 7 8 11 9 6 5 6 6 7 7 7 6 7 6 5 6
2 4 1 1 2 3 3 3 2 2 2 2 2 1 2 2 1 1 1 1 1 2 1 2 3 3 2 1 1 2 2 2 2 3 6 8 6 7 7 8 9 7 7 7 7 7 7 7 7 6 6 6 5 6
5 2 2 1 2 0 3 2 2 2 2 1 1 2 1 1 0 1 1 1 1 1 2 2 2 3 3 2 3 4 3 3 4 4 6 5 3 5 6 7 7 8 7 5 5 6 7 7 7 7 6 6 6 6
3 2 2 1 2 3 1 2 2 2 2 2 1 2 1 1 2 1 2 2 2 2 2 3 1 2 2 3 3 3 3 3 4 5 6 7 6 5 3 4 4 4 4 6 6 5 6 7 8 7 7 7 8 7
0 2 1 2 2 2 2 3 2 2 2 1 1 1 2 2 1 2 2 2 3 3 3 1 2 2 2 2 2 3 2 3 4 6 4 6 7 6 5 3 0 3 5 7 7 7 7 7 7 8 8 8 9 10
2 3 2 1 1 1 1 2 2 3 3 1 1 1 1 1 3 2 2 1 2 1 2 1 3 3 2 3 3 3 2 2 3 4 5 6 8 10 9 6 3 3 5 5 7 8 9 8 8 10 9 9 7 8
1 1 2 2 1 2 2 2 2 2 2 2 2 2 1 2 1 0 2 2 2 0 1 1 2 3 3 3 3 3 3 2 4 1 4 8 8 7 8 8 8 4 4 8 8 9 10 10 9 9 8 7 8 8
2 1 0 1 1 1 3 2 2 2 1 1 1 1 1 1 2 2 2 2 3 1 0 1 1 2 1 2 3 1 3 0 2 3 5 4 3 5 7 5 4 3 3 6 7 7 8 9 10 10 10 8 7 7
2 1 1 2 3 3 2 1 1 1 2 1 0 2 2 1 2 2 2 3 1 2 4 4 3 2 3 3 2 2 3 3 5 6 3 5 2 3 5 4 4 4 5 5 4 5 8 8 10 10 10 6 5 5
2 3 2 2 2 1 1 2 1 2 1 1 1 1 1 2 4 4 3 4 5 5 4 3 3 3 2 3 2 2 1 1 2 3 7 8 8 2 5 6 6 7 6 7 7 7 6 7 8 6 6 5 5 5
1 2 2 1 1 1 5 1 1 2 2 1 1 1 3 3 2 6 7 5 5 5 6 5 5 5 4 1 3 1 2 3 6 4 7 5 5 3 4 5 5 6 7 8 7 7 8 7 7 8 8 8 9 8
2 2 1 3 2 1 1 2 1 3 3 3 2 1 2 2 2 2 6 5 5 6 5 5 6 4 5 3 2 2 3 5 5 5 6 3 5 4 4 5 6 7 8 8 7 7 9 8 7 8 8 10 10 10
1 1 1 1 2 3 1 2 1 1 2 2 2 2 1 3 2 2 1 4 4 5 5 5 4 4 4 4 3 3 3 4 6 1 4 7 6 4 4 5 6 7 9 8 7 7 9 9 7 7 7 8 9 9
Wind_Direction
278 293 303 307 312 315 319 323 324 323 320 318 322 319 324 328 329 329 279 194 227 251 290 273 276 282 282 276 281 307 311 184 296 345 338 340 294 335 323 324 190 147 179 57 335 88 87 352 304 156 108 115 130 141
280 294 301 310 309 311 318 318 321 318 319 316 317 315 321 322 318 330 261 194 219 237 274 290 280 269 258 256 272 261 270 286 270 320 309 303 289 302 292 19 25 42 27 76 45 40 8 20 62 104 105 114 109 112
282 295 310 311 310 311 317 317 318 316 318 315 315 314 319 316 316 320 251 246 239 266 286 299 270 294 245 237 224 269 268 262 264 234 299 257 291 292 356 17 86 72 39 72 90 34 61 66 70 83 98 103 111 113
274 295 299 305 308 311 315 316 315 314 317 315 312 312 317 316 313 309 269 279 226 271 288 287 291 298 289 275 226 212 263 281 262 279 262 266 283 338 13 37 47 17 44 72 107 108 78 56 73 100 100 98 101 102
281 289 297 301 306 310 310 311 311 315 314 313 312 314 316 314 312 302 265 251 231 287 290 293 305 264 299 282 279 265 238 263 286 303 328 326 287 336 18 38 23 346 324 37 57 70 89 78 82 94 99 101 105 108
281 295 301 303 310 312 309 311 313 316 314 312 314 314 314 310 302 281 290 172 219 189 286 299 312 287 311 320 322 349 306 270 277 312 334 292 245 336 47 53 357 46 55 29 91 86 86 80 71 85 98 100 100 99
292 304 309 311 311 313 307 312 317 315 313 312 312 312 311 301 207 223 323 31 206 221 262 288 291 280 314 310 331 333 335 339 353 357 15 348 11 26 44 48 19 62 76 90 99 100 69 55 86 82 91 93 93 93
302 308 307 311 309 307 309 317 318 317 315 312 313 313 307 201 185 270 244 240 227 244 239 290 286 308 14 322 327 4 342 327 18 353 23 1 10 42 45 55 87 77 77 70 73 78 97 103 96 92 95 99 95 97
293 299 305 304 305 307 315 320 320 321 315 315 318 312 196 193 229 266 292 302 232 271 287 280 301 316 350 329 296 315 338 9 301 34 29 357 18 33 359 357 17 48 95 110 96 97 100 99 104 105 106 106 107 109
297 305 307 305 305 310 320 324 324 322 321 324 344 333 238 179 310 309 135 221 209 185 226 258 261 284 340 326 319 339 1 18 9 47 288 42 74 51 27 25 83 92 108 117 112 111 112 107 108 108 106 108 109 109
304 305 303 303 305 315 321 324 324 336 345 0 350 332 308 308 309 232 278 260 173 261 199 247 267 303 62 321 320 7 339 351 23 360 11 33 22 6 63 69 68 65 62 82 96 103 108 116 118 114 110 108 109 111
296 303 308 305 309 314 317 317 326 342 294 282 294 289 272 290 268 272 249 251 266 320 293 288 313 268 305 297 291 8 344 324 52 325 40 61 9 4 84 102 90 72 102 104 105 105 104 106 110 111 113 114 111 114
296 298 303 309 311 312 307 308 317 312 311 255 201 245 243 185 22 356 359 317 302 288 301 326 325 332 273 359 296 330 2 38 287 33 56 46 11 13 78 113 92 113 120 117 116 115 115 117 117 120 120 119 122 121
295 295 300 304 307 302 324 323 317 323 289 270 337 305 256 323 200 255 269 294 311 272 311 316 307 334 343 334 356 343 10 302 58 39 46 3 354 350 32 131 138 133 129 127 125 124 121 118 116 116 116 121 122 122
293 296 300 302 281 323 321 313 311 260 252 260 209 261 256 350 273 275 288 284 260 286 315 307 269 278 8 354 8 327 24 56 42 3 277 322 319 311 77 152 145 141 136 134 131 129 126 125 124 124 127 127 124 127
314 312 256 210 330 322 315 313 237 190 232 238 222 266 262 271 299 310 281 293 327 319 298 249 333 1 50 344 23 40 353 10 346 287 273 305 316 108 135 146 142 138 147 142 143 140 136 134 133 128 130 132 133 135
310 245 311 316 319 316 312 230 222 215 246 218 249 236 271 268 270 272 277 271 312 306 353 323 15 33 288 10 40 48 328 314 185 263 299 303 301 146 142 124 125 133 142 139 139 140 131 125 130 131 131 138 141 142
244 268 301 310 322 311 243 225 250 245 246 244 254 277 209 235 279 282 257 263 284 329 322 22 318 81 353 36 8 247 253 260 240 276 307 291 147 113 131 122 124 140 139 139 140 141 138 142 143 136 134 143 140 142
269 284 290 297 299 298 291 236 232 261 248 218 223 246 251 255 249 251 266 262 232 270 297 224 214 178 217 217 240 255 259 234 273 145 190 227 160 132 126 109 92 98 116 134 143 145 145 153 142 143 141 152 147 150
287 285 282 284 223 228 262 246 237 252 266 298 259 254 242 252 295 277 273 249 178 195 224 237 275 298 269 290 269 283 283 227 193 203 151 136 144 143 144 147 137 125 100 111 116 124 131 129 140 148 154 153 153 153
317 266 313 164 184 225 267 284 242 233 278 248 253 245 267 264 276 300 30 158 190 261 299 289 308 316 299 262 287 291 244 207 228 248 191 151 156 141 132 130 132 118 135 160 153 144 155 146 143 146 153 157 153 149
270 312 274 227 253 214 251 224 263 302 258 275 282 260 280 303 328 5 155 103 23 19 320 327 336 328 322 31 6 284 334 185 128 103 101 116 142 149 150 154 157 162 168 164 161 157 143 137 140 145 153 143 146 141
279 227 255 251 259 257 264 176 253 207 258 269 279 272 243 272 346 255 85 37 12 352 333 339 13 7 15 35 83 80 76 113 107 111 114 96 93 131 151 162 173 163 157 160 159 147 142 136 150 158 150 155 159 154
243 269 266 245 210 270 271 247 232 260 255 244 258 303 43 334 329 173 86 53 8 330 11 56 86 86 95 108 76 77 67 88 95 104 130 121 106 80 112 144 159 159 159 145 152 151 154 169 157 174 175 175 179 182
287 199 214 299 224 280 291 341 305 251 274 50 328 27 27 337 26 49 48 13 353 8 22 74 79 103 115 82 104 85 119 130 123 127 116 131 132 127 102 70 262 179 157 158 167 171 168 168 180 188 188 190 192 195
232 178 174 213 143 246 270 274 275 333 316 296 87 23 8 60 62 47 338 284 321 315 11 49 155 149 166 198 187 162 140 170 153 137 152 168 170 169 179 197 195 171 190 197 182 185 181 181 187 190 195 193 182 187
264 178 201 219 265 278 271 257 254 284 300 15 38 45 17 82 88 201 279 232 250 257 287 296 252 226 238 161 189 155 93 177 223 210 171 182 186 190 201 202 213 223 183 203 200 193 186 183 184 186 179 173 182 189
264 275 160 143 273 226 283 296 291 345 4 87 171 65 180 212 62 341 310 335 316 130 201 303 343 304 287 177 148 50 338 120 168 124 108 125 208 230 227 225 240 248 233 195 188 186 184 182 179 177 176 181 181 187
250 241 201 250 219 226 225 285 321 30 307 315 6 133 229 184 351 314 321 330 325 44 31 21 35 30 94 102 113 270 231 189 169 162 183 212 296 268 237 206 173 167 157 148 136 157 171 170 173 178 182 180 167 166
239 190 242 234 254 199 220 198 250 326 293 282 91 193 186 86 26 0 12 26 33 39 31 12 6 6 103 166 179 171 184 184 222 185 155 206 235 208 175 186 173 152 148 149 138 118 108 120 123 128 149 154 159 162
180 171 237 240 96 311 266 308 169 288 295 257 230 216 169 135 110 39 30 17 32 42 46 34 52 30 16 70 142 113 28 50 6 336 222 224 243 224 199 182 161 154 159 157 157 159 152 161 167 167 177 179 177 176
187 222 246 234 237 235 268 211 190 201 192 207 217 178 177 105 86 34 4 353 34 37 29 27 18 353 338 322 88 41 294 310 336 351 360 253 234 231 205 174 165 165 170 170 170 170 176 176 175 180 185 186 181 181
108 323 290 327 337 1 344 333 181 168 181 197 179 161 126 125 116 66 51 19 28 4 343 339 350 4 15 25 11 329 301 318 321 328 329 304 276 242 179 173 169 175 173 172 176 178 183 183 181 183 187 182 178 172